Weather in Nisaki

Greece     39°43′33″N   19°53′56″E
temp.,
°C
wind,
m/s
gust,
m/s
humid.,
%
clouds,
%
prec.,
mm/h
press.,
hPa
HPBL,
m
8 august, mon
mon800:00+27sse335488 0.0 101019
03:00+25e226111 0.2 101114
06:00+25ne116184 0.4 101020
09:00+26e125735 2.1 101295
12:00+29wnw22468 0.0 1012589
15:00+29nw775029 0.0 1011598
18:00+28nw466223 0.0 1011275
21:00+26nw33675 0.0 101238
9 august, tue
tue900:00+25ene11685 0.0 101312
03:00+25n116573 0.0 101314
06:00+25n22648 0.0 101216
09:00+28ese01475 0.0 1013119
12:00+29nw324713 0.0 1013476
15:00+29nw565858 0.0 1012542
18:00+29nw464978 0.0 1012365
21:00+25wnw688099 0.0 1012209
10 august, wed
wed1000:00+24wnw34865 0.0 101399
03:00+25nne12720 0.0 101126
06:00+24ene01700 0.0 101113
09:00+27e01580 0.0 1012125
12:00+28w22479 0.0 1011401
15:00+27nw566049 0.0 1011468
18:00+28nw45618 0.0 1011264
21:00+27nnw336895 0.0 101060
11 august, thu
thu1100:00+27nne11537 0.0 101011
03:00+25sw22585 0.0 101117
06:00+25ese11625 0.0 101011
09:00+28se01485 0.0 1010110
12:00+29sw12455 0.0 1011363
15:00+27nw225765 0.0 1012441
18:00+28nw45565 0.0 1010316
21:00+25wnw347311 0.0 101084
12 august, fri
fri1200:00+25nnw01675 0.0 101117
03:00+24ese116014 0.0 101117
06:00+24ene1159100 0.0 101116
09:00+26ne1152100 0.0 1012120
12:00+27wnw2246100 0.0 1012441
15:00+27nw555484 0.0 1012550
18:00+27nw67540 0.0 1011373
21:00+26wsw11591 0.0 101220